Location: Northern Prairie Star Party
(53.2167°N, 112.5333°W)
Time: 11:30:44
(UTC-07:00)

Amateur Radio Satellites - All Passes

Search period start: 30 January 2015 11:00
Search period end: 31 January 2015 11:00
Location: Northern Prairie Star Party, 53.2167°N, 112.5333°W

Satellite Date Start Highest point End Downlink Frequencies (MHz)
Time Altitude Azimuth
GOMX 1 30 Jan 11:01:40 11:06:23 30° 300° (WNW) 11:10:54 467.674
DOVE 4 30 Jan 11:08:11 11:12:50 32° 299° (WNW) 11:17:17 437.250
AIST 1 30 Jan 11:09:05 11:12:55 33° 91° (E) 11:16:48
BEESAT 2 30 Jan 11:09:16 11:13:14 41° 236° (SW) 11:17:09 435.950
UNISAT 6 30 Jan 11:09:26 11:13:32 28° 267° (W) 11:17:34 437.425
50 SAT 30 Jan 11:10:15 11:14:15 50° 100° (E) 11:18:12 437.505
POPSAT HIP 1 30 Jan 11:11:01 11:15:01 37° 264° (W) 11:19:03 437.405
AIST 2 30 Jan 11:11:07 11:15:27 78° 229° (SW) 11:19:43 435.215
PHONESAT 2.4 30 Jan 11:11:41 11:12:49 11° 177° (S) 11:13:57 2401.200-2431.200
BRITE-PL 30 Jan 11:12:45 11:17:03 22° 305° (NW) 11:21:11 437.365/2234.400
DUCHIFAT 1 30 Jan 11:12:59 11:16:57 36° 264° (W) 11:20:56 145.980
PCSat 30 Jan 11:18:31 11:23:23 32° 30° (NNE) 11:28:15 145.827
VELOX 1 30 Jan 11:18:32 11:23:02 62° 102° (ESE) 11:27:30 145.980
BEESAT 3 30 Jan 11:22:21 11:26:01 29° 239° (WSW) 11:29:36 437.485
SEEDS 30 Jan 11:23:11 11:25:52 16° 303° (WNW) 11:28:26 437.485
CUBEBUG 1 30 Jan 11:23:20 11:27:23 34° 95° (E) 11:31:27 437.445
HO-68 30 Jan 11:28:08 11:34:28 35° 307° (NW) 11:40:43 435.675
Oscar 19 30 Jan 11:31:05 11:35:05 24° 57° (ENE) 11:39:11 437.125/150
UKube-1 30 Jan 11:34:47 11:38:59 45° 293° (WNW) 11:43:08 .
TISAT 1 30 Jan 11:37:55 11:40:07 14° 86° (E) 11:42:29 437.305
SO-50 30 Jan 11:43:45 11:48:26 82° 315° (NW) 11:53:17 436.795
HUMSAT D 30 Jan 11:45:14 11:49:28 60° 289° (WNW) 11:53:36 437.325/437.525
ANTELSAT 30 Jan 11:47:27 11:50:09 15° 275° (W) 11:52:40 437.575/2403.000
COMPASS 1 30 Jan 11:48:45 11:50:26 12° 306° (NW) 11:51:58 437.405
NANOSAT C BR1 30 Jan 11:49:14 11:52:15 18° 272° (W) 11:55:11 145.865
CUBEBUG 2 30 Jan 11:50:17 11:54:18 29° 298° (WNW) 11:58:10 437.445
ITAMSAT 1 30 Jan 11:51:14 11:54:14 16° 50° (NE) 11:57:23 435.822/435.867
ZACube-1 30 Jan 11:52:15 11:56:21 34° 295° (WNW) 12:00:18 437.345
TIGRISAT 30 Jan 11:54:59 11:57:15 13° 276° (W) 11:59:18 435.000
DX 1 30 Jan 11:57:22 12:01:13 29° 298° (WNW) 12:05:01 434.975-435.025
DELFI C3 30 Jan 12:01:07 12:03:59 18° 300° (WNW) 12:06:45 145.870
FUNcube-1 30 Jan 12:03:57 12:07:49 28° 297° (WNW) 12:11:33 145.935
QB50P2 30 Jan 12:05:25 12:07:34 13° 275° (W) 12:09:34 145.880/145.840
GONETS M04 30 Jan 12:09:05 12:17:44 64° 72° (ENE) 12:26:23
QB50P1 30 Jan 12:15:18 12:16:37 11° 277° (W) 12:17:43 145.935-145.965
BUGSAT 1 30 Jan 12:20:00 12:21:33 12° 276° (W) 12:22:55 437.445
CINEMA 3 30 Jan 12:24:36 12:27:05 14° 309° (NW) 12:29:22 145.822/145.860
CUSAT 1 30 Jan 12:26:59 12:28:48 11° 30° (NNE) 12:30:44 437.405
AISAT 30 Jan 12:27:45 12:31:53 35° 296° (WNW) 12:35:58 437.250
UWE-3 30 Jan 12:28:20 12:31:23 18° 304° (NW) 12:34:17 435.000/436.395/437.385
AO-7 30 Jan 12:33:53 12:39:25 20° 32° (NNE) 12:45:07 29.400- 29.500
ESTCUBE 1 30 Jan 12:34:23 12:38:50 57° 291° (WNW) 12:43:18 437.505/2401.250
Oscar 11 30 Jan 12:37:37 12:38:17 10° 309° (NW) 12:38:47 145.826/435.025
SWISSCUBE 30 Jan 12:37:49 12:39:20 12° 82° (E) 12:41:05 437.505
SPROUT 30 Jan 12:39:37 12:43:53 51° 99° (E) 12:48:08 437.525
RS-15 30 Jan 12:45:20 12:56:35 76° 40° (NE) 13:08:21 29.354- 29.394
50 SAT 30 Jan 12:45:54 12:49:08 22° 299° (WNW) 12:52:15 437.505
AIST 1 30 Jan 12:46:47 12:50:38 31° 292° (WNW) 12:54:29
AIST 2 30 Jan 12:51:10 12:53:26 14° 247° (WSW) 12:55:32 435.215
BEESAT 30 Jan 12:52:33 12:55:07 15° 85° (E) 12:57:52 436.000
Gurwin Techsat 1B 30 Jan 12:53:47 12:58:21 31° 60° (ENE) 13:02:59 435.225
VELOX 1 30 Jan 12:55:46 12:59:17 22° 301° (WNW) 13:02:44 145.980
ITUPSAT 1 30 Jan 12:57:04 12:59:54 16° 86° (E) 13:02:54 437.325
CUBEBUG 1 30 Jan 12:59:42 13:03:49 36° 295° (WNW) 13:07:53 437.445
PCSat 30 Jan 13:01:55 13:07:24 82° 231° (SW) 13:12:50 145.827
Oscar 19 30 Jan 13:08:48 13:14:01 74° 256° (WSW) 13:19:15 437.125/150
TISAT 1 30 Jan 13:12:18 13:16:38 85° 286° (WNW) 13:20:56 437.305
HO-68 30 Jan 13:17:25 13:20:17 13° 330° (NNW) 13:22:55 435.675
HUMSAT D 30 Jan 13:23:15 13:24:28 11° 308° (NW) 13:25:32 437.325/437.525
SO-50 30 Jan 13:25:29 13:29:38 29° 339° (NNW) 13:33:53 436.795
ITAMSAT 1 30 Jan 13:27:48 13:32:56 70° 71° (ENE) 13:38:10 435.822/435.867
DANDE 30 Jan 13:46:10 13:52:06 26° 50° (NE) 13:57:03 436.750
HORYU 2 30 Jan 13:46:32 13:50:16 27° 61° (ENE) 13:54:04 437.375
GONETS M04 30 Jan 14:06:25 14:14:15 38° 276° (W) 14:21:56
CUSAT 1 30 Jan 14:08:20 14:14:33 35° 58° (ENE) 14:19:25 437.405
ESTCUBE 1 30 Jan 14:13:23 14:14:54 11° 310° (NW) 14:16:14 437.505/2401.250
SWISSCUBE 30 Jan 14:13:24 14:18:13 71° 103° (ESE) 14:23:00 437.505
SPROUT 30 Jan 14:16:10 14:19:46 25° 299° (WNW) 14:23:17 437.525
STARS 30 Jan 14:19:21 14:21:43 14° 86° (E) 14:24:14 437.465
AO-7 30 Jan 14:22:34 14:30:32 52° 57° (ENE) 14:38:34 29.400- 29.500
KKS-1 30 Jan 14:27:55 14:31:34 24° 92° (E) 14:35:15 437.445
BEESAT 30 Jan 14:28:57 14:33:46 88° 101° (E) 14:38:34 436.000
Gurwin Techsat 1B 30 Jan 14:32:54 14:38:07 55° 260° (W) 14:43:22 435.225
ITUPSAT 1 30 Jan 14:33:43 14:38:33 87° 287° (WNW) 14:43:22 437.325
JAS-2 30 Jan 14:41:31 14:45:25 22° 55° (NE) 14:49:22 435.910
PCSat 30 Jan 14:46:30 14:50:07 18° 252° (WSW) 14:53:32 145.827
TISAT 1 30 Jan 14:49:24 14:51:52 15° 305° (NW) 14:54:13 437.305
Oscar 19 30 Jan 14:51:47 14:54:24 13° 277° (W) 14:56:47 437.125/150
RS-15 30 Jan 14:58:02 15:08:34 46° 245° (WSW) 15:19:23 29.354- 29.394
SO-50 30 Jan 15:07:50 15:11:33 22° 3° (N) 15:15:21 436.795
ITAMSAT 1 30 Jan 15:08:58 15:13:02 22° 271° (W) 15:17:00 435.822/435.867
HORYU 2 30 Jan 15:22:23 15:26:46 49° 260° (W) 15:31:09 437.375
O/OREOS (USA 219) 30 Jan 15:23:02 15:25:07 13° 99° (E) 15:27:24 437.305
DANDE 30 Jan 15:29:30 15:36:47 84° 260° (W) 15:42:11 436.750
Cubesat XI-IV 30 Jan 15:44:46 15:47:42 15° 49° (NE) 15:50:48 437.490
CUSAT 1 30 Jan 15:51:30 15:57:58 51° 267° (W) 16:02:49 437.405
SWISSCUBE 30 Jan 15:52:00 15:55:41 22° 303° (WNW) 15:59:16 437.505
STARS 30 Jan 15:54:24 15:58:55 86° 281° (W) 16:03:22 437.465
M-CUBED/EXP-1 PRIME 30 Jan 16:01:11 16:04:16 34° 104° (ESE) 16:07:23 437.505
CUTE-I 30 Jan 16:03:21 16:07:02 20° 53° (NE) 16:10:51 437.470
KKS-1 30 Jan 16:04:07 16:08:32 52° 292° (WNW) 16:12:53 437.445
BEESAT 30 Jan 16:07:49 16:11:05 18° 305° (NW) 16:14:15 436.000
ITUPSAT 1 30 Jan 16:12:42 16:15:52 17° 306° (NW) 16:18:54 437.325
AO-7 30 Jan 16:15:16 16:23:26 53° 259° (W) 16:31:35 29.400- 29.500
MOZHAYETS 4 30 Jan 16:17:31 16:20:25 17° 86° (E) 16:23:27
JAS-2 30 Jan 16:24:48 16:30:08 75° 256° (WSW) 16:35:22 435.910
AUBIESAT-1 30 Jan 16:33:03 16:36:22 71° 110° (ESE) 16:39:44 437.475
HO-68 30 Jan 16:47:34 16:49:10 11° 26° (NNE) 16:50:58 435.675
SO-50 30 Jan 16:48:57 16:53:24 34° 26° (NNE) 16:57:54 436.795
O/OREOS (USA 219) 30 Jan 16:59:21 17:03:53 85° 115° (ESE) 17:08:27 437.305
DANDE 30 Jan 17:14:21 17:18:54 18° 284° (WNW) 17:22:36 436.750
RS-15 30 Jan 17:14:58 17:18:10 11° 268° (W) 17:20:24 29.354- 29.394
Cubesat XI-IV 30 Jan 17:21:41 17:26:56 64° 69° (ENE) 17:32:16 437.490
YUBILEINY 30 Jan 17:27:04 17:28:41 11° 64° (ENE) 17:30:51 435.215
STARS 30 Jan 17:32:04 17:34:48 16° 305° (NW) 17:37:26 437.465
M-CUBED/EXP-1 PRIME 30 Jan 17:36:30 17:39:12 23° 303° (WNW) 17:41:53 437.505
PRISM 30 Jan 17:40:01 17:41:12 11° 84° (E) 17:42:36 437.425
CUTE-I 30 Jan 17:41:09 17:46:29 86° 76° (ENE) 17:51:54 437.470
KKS-1 30 Jan 17:43:18 17:44:17 11° 311° (NW) 17:45:06 437.445
MOZHAYETS 4 30 Jan 17:53:41 17:58:17 76° 287° (WNW) 18:02:51
AUBIESAT-1 30 Jan 18:09:11 18:10:57 14° 308° (NW) 18:12:39 437.475
CUBESAT XI-V 30 Jan 18:13:52 18:17:22 21° 89° (E) 18:20:58 437.345
JAS-2 30 Jan 18:14:05 18:16:25 12° 278° (W) 18:18:28 435.910
AO-7 30 Jan 18:15:01 18:18:38 13° 284° (WNW) 18:21:41 29.400- 29.500
HO-68 30 Jan 18:28:52 18:34:44 29° 50° (NE) 18:40:43 435.675
SO-50 30 Jan 18:29:29 18:34:25 78° 228° (SW) 18:39:21 436.795
O/OREOS (USA 219) 30 Jan 18:40:24 18:43:56 21° 321° (NW) 18:47:25 437.305
CUTE 1.7 + AOD 2 30 Jan 18:42:59 18:45:04 14° 55° (NE) 18:47:17 437.475
STRAND 1 30 Jan 18:57:34 19:02:15 35° 95° (E) 19:06:59 437.568
GOMX 1 30 Jan 19:00:25 19:04:34 24° 57° (ENE) 19:08:57 467.674
Cubesat XI-IV 30 Jan 19:03:10 19:07:33 25° 270° (W) 19:11:52 437.490
DOVE 4 30 Jan 19:05:37 19:09:23 21° 55° (NE) 19:13:19 437.250
SEEDS 30 Jan 19:10:16 19:13:16 19° 59° (ENE) 19:16:22 437.485
BRITE-PL 30 Jan 19:12:19 19:17:07 37° 63° (ENE) 19:22:14 437.365/2234.400
PRISM 30 Jan 19:13:20 19:17:31 82° 107° (ESE) 19:21:41 437.425
YUBILEINY 30 Jan 19:15:14 19:23:18 46° 87° (E) 19:31:30 435.215
CUTE-I 30 Jan 19:23:41 19:27:23 18° 274° (W) 19:30:56 437.470
MOZHAYETS 4 30 Jan 19:32:19 19:34:51 15° 306° (NW) 19:37:15
COMPASS 1 30 Jan 19:33:54 19:37:22 26° 63° (ENE) 19:40:54 437.405
CUBEBUG 2 30 Jan 19:43:05 19:45:55 16° 55° (NE) 19:48:53 437.445
ZACube-1 30 Jan 19:44:43 19:46:30 12° 52° (NE) 19:48:25 437.345
DELFI C3 30 Jan 19:46:18 19:48:32 15° 57° (ENE) 19:50:53 145.870
DX 1 30 Jan 19:48:45 19:51:07 15° 54° (NE) 19:53:38 434.975-435.025
CUBESAT XI-V 30 Jan 19:50:38 19:55:17 64° 289° (WNW) 19:59:57 437.345
CANX-2 30 Jan 19:52:18 19:56:28 52° 70° (ENE) 20:00:40 2200.000
FUNcube-1 30 Jan 19:55:20 19:57:45 15° 54° (NE) 20:00:19 145.935
AAUSAT CUBESAT 2 30 Jan 19:58:28 20:02:19 37° 67° (ENE) 20:06:13 437.432
SO-50 30 Jan 20:11:13 20:14:20 16° 247° (WSW) 20:17:17 436.795
HO-68 30 Jan 20:14:40 20:21:50 86° 251° (WSW) 20:29:03 435.675
CUTE 1.7 + AOD 2 30 Jan 20:16:05 20:20:23 79° 74° (ENE) 20:24:41 437.475
CINEMA 3 30 Jan 20:16:30 20:21:09 41° 66° (ENE) 20:25:55 145.822/145.860
UWE-3 30 Jan 20:18:27 20:22:13 25° 61° (ENE) 20:26:03 435.000/436.395/437.385
AISAT 30 Jan 20:21:26 20:23:34 14° 52° (NE) 20:25:50 437.250
Oscar 11 30 Jan 20:23:41 20:27:40 36° 66° (ENE) 20:31:40 145.826/435.025
50 SAT 30 Jan 20:31:22 20:33:05 13° 54° (NE) 20:34:56 437.505
STRAND 1 30 Jan 20:36:43 20:41:36 44° 295° (WNW) 20:46:29 437.568
GOMX 1 30 Jan 20:36:56 20:42:11 76° 257° (WSW) 20:47:43 467.674
DOVE 4 30 Jan 20:41:20 20:46:31 87° 250° (WSW) 20:51:56 437.250
SEEDS 30 Jan 20:44:30 20:48:44 66° 257° (WSW) 20:52:59 437.485
VELOX 1 30 Jan 20:47:27 20:50:40 20° 58° (ENE) 20:53:59 145.980
PRISM 30 Jan 20:49:56 20:52:33 16° 304° (WNW) 20:55:04 437.425
BRITE-PL 30 Jan 20:50:28 20:55:32 47° 264° (W) 21:00:55 437.365/2234.400
CUBEBUG 1 30 Jan 20:52:52 20:54:14 11° 51° (NE) 20:55:46 437.445
UKube-1 30 Jan 20:59:44 21:03:55 50° 68° (ENE) 21:08:10 .
HUMSAT D 30 Jan 21:08:01 21:11:50 31° 64° (ENE) 21:15:42 437.325/437.525
COMPASS 1 30 Jan 21:08:52 21:12:56 45° 262° (W) 21:17:01 437.405
AIST 1 30 Jan 21:09:54 21:13:01 19° 62° (ENE) 21:16:14
YUBILEINY 30 Jan 21:11:36 21:20:06 54° 291° (WNW) 21:28:39 435.215
CUBEBUG 2 30 Jan 21:17:11 21:21:58 80° 73° (ENE) 21:26:47 437.445
ZACube-1 30 Jan 21:17:31 21:22:04 61° 71° (ENE) 21:26:38 437.345
DELFI C3 30 Jan 21:19:10 21:23:15 87° 252° (WSW) 21:27:22 145.870
DX 1 30 Jan 21:22:24 21:26:46 81° 73° (ENE) 21:31:10 434.975-435.025
FUNcube-1 30 Jan 21:28:50 21:33:26 75° 73° (ENE) 21:38:03 145.935
CANX-2 30 Jan 21:29:19 21:32:45 22° 270° (W) 21:36:05 2200.000
CUBESAT XI-V 30 Jan 21:29:46 21:31:57 13° 308° (NW) 21:34:00 437.345
AAUSAT CUBESAT 2 30 Jan 21:34:20 21:38:05 30° 266° (W) 21:41:48 437.432
CINEMA 3 30 Jan 21:53:46 21:58:26 37° 266° (W) 22:03:07 145.822/145.860
UWE-3 30 Jan 21:53:48 21:58:28 59° 260° (W) 22:03:09 435.000/436.395/437.385
CUTE 1.7 + AOD 2 30 Jan 21:54:22 21:56:56 15° 274° (W) 21:59:21 437.475
AISAT 30 Jan 21:55:01 21:59:28 71° 71° (ENE) 22:03:59 437.250
ANTELSAT 30 Jan 21:55:42 21:57:42 13° 83° (E) 21:59:51 437.575/2403.000
Oscar 11 30 Jan 21:59:58 22:03:54 32° 265° (W) 22:07:50 145.826/435.025
TIGRISAT 30 Jan 22:02:06 22:04:31 15° 85° (E) 22:07:04 435.000
50 SAT 30 Jan 22:03:25 22:07:34 74° 72° (ENE) 22:11:42 437.505
ESTCUBE 1 30 Jan 22:03:39 22:07:52 42° 66° (ENE) 22:12:09 437.505/2401.250
HO-68 30 Jan 22:05:18 22:10:43 22° 274° (W) 22:15:56 435.675
SPROUT 30 Jan 22:06:11 22:08:35 15° 55° (NE) 22:11:07 437.525
QB50P2 30 Jan 22:08:45 22:09:24 10° 82° (E) 22:10:17 145.880/145.840
QB50P1 30 Jan 22:16:31 22:18:16 12° 84° (E) 22:20:12 145.935-145.965
GOMX 1 30 Jan 22:18:25 22:21:23 15° 279° (W) 22:24:12 467.674
STRAND 1 30 Jan 22:18:25 22:19:42 11° 315° (NW) 22:20:47 437.568
BUGSAT 1 30 Jan 22:20:04 22:20:42 10° 83° (E) 22:21:34 437.445
DOVE 4 30 Jan 22:21:46 22:25:10 17° 277° (W) 22:28:27 437.250
VELOX 1 30 Jan 22:22:25 22:26:51 70° 257° (WSW) 22:31:20 145.980
ISS 30 Jan 22:24:12 22:26:49 22° 149° (SSE) 22:29:29 145.825
CUBEBUG 1 30 Jan 22:25:30 22:29:48 60° 70° (ENE) 22:34:10 437.445
POLYITAN 1 30 Jan 22:31:41 22:34:32 17° 88° (E) 22:37:30 437.675
TISAT 1 30 Jan 22:36:01 22:39:26 24° 61° (ENE) 22:42:57 437.305
UKube-1 30 Jan 22:36:49 22:40:22 24° 268° (W) 22:43:53 .
HUMSAT D 30 Jan 22:43:28 22:47:35 38° 264° (W) 22:51:40 437.325/437.525
AIST 1 30 Jan 22:46:51 22:51:10 63° 263° (W) 22:55:29
POPSAT HIP 1 30 Jan 22:50:18 22:53:51 25° 92° (E) 22:57:27 437.405
DUCHIFAT 1 30 Jan 22:51:52 22:55:27 25° 92° (E) 22:59:04 145.980
UNISAT 6 30 Jan 22:54:45 22:59:02 42° 97° (E) 23:03:12 437.425
ZACube-1 30 Jan 22:55:14 22:58:51 22° 271° (W) 23:02:23 437.345
CUBEBUG 2 30 Jan 22:56:02 22:59:18 18° 274° (W) 23:02:26 437.445
DELFI C3 30 Jan 22:57:42 22:59:14 12° 276° (W) 23:00:36 145.870
DX 1 30 Jan 23:01:05 23:03:41 15° 273° (W) 23:06:08 434.975-435.025
FUNcube-1 30 Jan 23:07:11 23:10:22 18° 273° (W) 23:13:25 145.935
YUBILEINY 30 Jan 23:13:54 23:19:33 18° 320° (NW) 23:24:56 435.215
NANOSAT C BR1 30 Jan 23:26:32 23:30:46 51° 100° (E) 23:34:59 145.865
GONETS M04 30 Jan 23:27:00 23:31:03 15° 69° (ENE) 23:35:34
ANTELSAT 30 Jan 23:30:48 23:35:21 87° 104° (ESE) 23:39:44 437.575/2403.000
AISAT 30 Jan 23:33:32 23:36:40 18° 272° (W) 23:39:40 437.250
TIGRISAT 30 Jan 23:37:30 23:42:02 84° 286° (WNW) 23:46:24 435.000
SPROUT 30 Jan 23:39:45 23:44:06 85° 72° (ENE) 23:48:29 437.525
50 SAT 30 Jan 23:40:43 23:43:14 15° 273° (W) 23:45:36 437.505
ESTCUBE 1 30 Jan 23:40:58 23:44:55 29° 266° (W) 23:48:51 437.505/2401.250
QB50P2 30 Jan 23:41:53 23:46:14 73° 103° (ESE) 23:50:32 145.880/145.840
O/OREOS (USA 219) 30 Jan 23:45:11 23:48:24 19° 36° (NE) 23:51:41 437.305
SWISSCUBE 30 Jan 23:49:29 23:53:28 28° 60° (ENE) 23:57:32 437.505
QB50P1 30 Jan 23:50:35 23:54:57 86° 104° (ESE) 23:59:15 145.935-145.965
BUGSAT 1 30 Jan 23:52:47 23:57:06 73° 103° (ESE) 00:01:23 437.445
ISS 30 Jan 23:59:41 00:02:55 57° 169° (S) 00:06:11 145.825
CUBEBUG 1 31 Jan 00:03:20 00:06:38 20° 271° (W) 00:09:51 437.445
VELOX 1 31 Jan 00:03:32 00:04:25 10° 278° (W) 00:05:03 145.980
BEESAT 31 Jan 00:04:36 00:08:50 34° 63° (ENE) 00:13:09 436.000
POLYITAN 1 31 Jan 00:06:40 00:11:01 68° 288° (WNW) 00:15:17 437.675
ITUPSAT 1 31 Jan 00:09:33 00:13:53 36° 64° (ENE) 00:18:16 437.325
TISAT 1 31 Jan 00:10:53 00:15:02 50° 260° (W) 00:19:15 437.305
POPSAT HIP 1 31 Jan 00:25:50 00:30:01 47° 292° (WNW) 00:34:08 437.405
DUCHIFAT 1 31 Jan 00:27:23 00:31:33 46° 292° (WNW) 00:35:39 145.980
UNISAT 6 31 Jan 00:31:47 00:35:44 30° 297° (WNW) 00:39:33 437.425
NANOSAT C BR1 31 Jan 01:02:54 01:06:25 24° 299° (WNW) 01:09:51 145.865
ANTELSAT 31 Jan 01:08:41 01:11:35 17° 305° (NW) 01:14:20 437.575/2403.000
Oscar 19 31 Jan 01:14:29 01:18:42 25° 91° (E) 01:22:59 437.125/150
TIGRISAT 31 Jan 01:15:29 01:18:09 15° 306° (NW) 01:20:40 435.000
GONETS M04 31 Jan 01:17:39 01:26:06 58° 92° (E) 01:34:36
SPROUT 31 Jan 01:18:29 01:20:53 14° 275° (W) 01:23:08 437.525
QB50P2 31 Jan 01:18:40 01:21:44 19° 302° (WNW) 01:24:40 145.880/145.840
STARS 31 Jan 01:21:55 01:25:42 28° 62° (ENE) 01:29:34 437.465
M-CUBED/EXP-1 PRIME 31 Jan 01:22:21 01:25:11 21° 56° (ENE) 01:27:57 437.505
O/OREOS (USA 219) 31 Jan 01:24:00 01:28:38 77° 58° (ENE) 01:33:15 437.305
BEESAT 3 31 Jan 01:24:27 01:25:43 11° 111° (ESE) 01:27:10 437.485
SWISSCUBE 31 Jan 01:26:30 01:31:09 52° 260° (W) 01:35:50 437.505
QB50P1 31 Jan 01:27:34 01:30:18 16° 304° (NW) 01:32:56 145.935-145.965
BUGSAT 1 31 Jan 01:29:10 01:32:10 19° 302° (WNW) 01:35:06 437.445
KKS-1 31 Jan 01:31:56 01:36:13 46° 67° (ENE) 01:40:34 437.445
ITAMSAT 1 31 Jan 01:35:28 01:38:30 16° 85° (E) 01:41:43 435.822/435.867
ISS 31 Jan 01:36:00 01:39:16 62° 189° (S) 01:42:33 145.825
BEESAT 31 Jan 01:42:08 01:46:40 41° 263° (W) 01:51:11 436.000
POLYITAN 1 31 Jan 01:44:19 01:46:14 13° 307° (NW) 01:48:01 437.675
ITUPSAT 1 31 Jan 01:47:21 01:51:48 38° 264° (W) 01:56:16 437.325
AUBIESAT-1 31 Jan 01:53:17 01:56:43 35° 61° (ENE) 01:59:58 437.475
Gurwin Techsat 1B 31 Jan 02:42:38 02:47:35 38° 95° (E) 02:52:33 435.225
BEESAT 2 31 Jan 02:47:05 02:51:05 49° 126° (SE) 02:55:09 435.950
Oscar 19 31 Jan 02:53:23 02:58:30 60° 291° (WNW) 03:03:32 437.125/150
AIST 2 31 Jan 02:53:32 02:57:13 29° 120° (ESE) 03:01:00 435.215
M-CUBED/EXP-1 PRIME 31 Jan 02:56:17 03:00:02 48° 253° (WSW) 03:03:31 437.505
STARS 31 Jan 02:57:45 03:02:02 46° 261° (W) 03:06:22 437.465
BEESAT 3 31 Jan 02:59:03 03:03:09 68° 130° (SE) 03:07:20 437.485
O/OREOS (USA 219) 31 Jan 03:04:27 03:07:33 18° 258° (WSW) 03:10:32 437.305
DANDE 31 Jan 03:04:32 03:10:59 26° 81° (E) 03:17:36 436.750
HORYU 2 31 Jan 03:08:04 03:11:27 21° 90° (E) 03:14:54 437.375
KKS-1 31 Jan 03:09:14 03:13:06 27° 267° (W) 03:16:56 437.445
ISS 31 Jan 03:12:34 03:15:26 27° 208° (SSW) 03:18:17 145.825
ITAMSAT 1 31 Jan 03:13:37 03:18:54 85° 106° (ESE) 03:24:10 435.822/435.867
GONETS M04 31 Jan 03:15:03 03:23:22 44° 296° (WNW) 03:31:36
YUBILEINY 31 Jan 03:21:15 03:23:58 12° 28° (NNE) 03:27:02 435.215
RS-15 31 Jan 03:21:51 03:28:14 19° 98° (E) 03:35:16 29.354- 29.394
CUSAT 1 31 Jan 03:22:04 03:29:20 35° 87° (E) 03:36:28 437.405
MOZHAYETS 4 31 Jan 03:25:14 03:29:18 32° 64° (ENE) 03:33:24
AUBIESAT-1 31 Jan 03:28:30 03:31:44 26° 258° (WSW) 03:34:46 437.475
PCSat 31 Jan 03:50:39 03:54:55 25° 111° (ESE) 03:59:19 145.827
AO-7 31 Jan 04:09:22 04:17:04 40° 96° (E) 04:24:48 29.400- 29.500
Gurwin Techsat 1B 31 Jan 04:22:39 04:27:40 42° 296° (WNW) 04:32:39 435.225
BEESAT 2 31 Jan 04:25:33 04:29:27 36° 327° (NNW) 04:33:23 435.950
AIST 2 31 Jan 04:31:25 04:35:39 55° 320° (NW) 04:39:56 435.215
Oscar 19 31 Jan 04:34:18 04:36:57 14° 311° (NW) 04:39:26 437.125/150
PRISM 31 Jan 04:35:47 04:38:49 21° 60° (ENE) 04:41:57 437.425
BEESAT 3 31 Jan 04:37:55 04:41:38 30° 331° (NNW) 04:45:22 437.485
STRAND 1 31 Jan 04:42:37 04:46:07 19° 54° (NE) 04:49:45 437.568
HORYU 2 31 Jan 04:44:07 04:48:32 58° 291° (WNW) 04:52:53 437.375
DANDE 31 Jan 04:44:59 04:53:35 81° 101° (E) 05:02:00 436.750
ITAMSAT 1 31 Jan 04:53:58 04:57:52 21° 306° (NW) 05:01:41 435.822/435.867
MOZHAYETS 4 31 Jan 05:02:09 05:06:29 40° 263° (W) 05:10:49
CUSAT 1 31 Jan 05:03:28 05:11:59 76° 287° (WNW) 05:20:01 437.405
JAS-2 31 Jan 05:10:33 05:16:02 55° 100° (E) 05:22:10 435.910
YUBILEINY 31 Jan 05:16:45 05:24:31 34° 58° (ENE) 05:32:24 435.215
GONETS M04 31 Jan 05:18:37 05:23:17 15° 325° (NW) 05:27:38
CUBESAT XI-V 31 Jan 05:23:13 05:27:29 39° 66° (ENE) 05:31:50 437.345
RS-15 31 Jan 05:27:48 05:38:26 64° 122° (ESE) 05:49:19 29.354- 29.394
PCSat 31 Jan 05:32:27 05:37:53 76° 311° (NW) 05:43:23 145.827
Cubesat XI-IV 31 Jan 05:33:43 05:36:53 16° 84° (E) 05:40:15 437.490
CUTE-I 31 Jan 05:52:31 05:56:36 22° 89° (E) 06:00:47 437.470
AO-7 31 Jan 06:02:09 06:10:25 65° 298° (WNW) 06:18:35 29.400- 29.500
Gurwin Techsat 1B 31 Jan 06:05:14 06:06:28 11° 316° (NW) 06:07:28 435.225
BEESAT 2 31 Jan 06:05:48 06:08:44 18° 350° (N) 06:11:41 435.950
PRISM 31 Jan 06:09:59 06:14:03 57° 259° (WSW) 06:18:08 437.425
AIST 2 31 Jan 06:11:45 06:15:07 21° 343° (NNW) 06:18:29 435.215
BEESAT 3 31 Jan 06:18:09 06:20:57 17° 355° (N) 06:23:45 437.485
STRAND 1 31 Jan 06:19:36 06:24:43 89° 79° (ENE) 06:29:55 437.568
HORYU 2 31 Jan 06:22:52 06:24:23 11° 310° (NW) 06:25:44 437.375
DANDE 31 Jan 06:30:06 06:37:56 35° 302° (WNW) 06:45:20 436.750
CUSAT 1 31 Jan 06:49:25 06:56:20 26° 308° (NW) 07:02:38 437.405
JAS-2 31 Jan 06:56:09 07:01:04 33° 299° (WNW) 07:06:22 435.910
CUBESAT XI-V 31 Jan 07:00:52 07:05:03 33° 266° (W) 07:09:14 437.345
Cubesat XI-IV 31 Jan 07:12:30 07:17:55 84° 104° (ESE) 07:23:20 437.490
YUBILEINY 31 Jan 07:13:32 07:22:19 76° 264° (W) 07:31:06 435.215
PCSat 31 Jan 07:17:33 07:22:10 27° 335° (NNW) 07:26:47 145.827
CUTE-I 31 Jan 07:31:55 07:37:18 73° 290° (WNW) 07:42:40 437.470
HO-68 31 Jan 07:37:39 07:40:35 13° 78° (ENE) 07:43:57 435.675
RS-15 31 Jan 07:40:17 07:51:07 61° 331° (NNW) 08:02:15 29.354- 29.394
BEESAT 2 31 Jan 07:45:15 07:48:20 19° 14° (NNE) 07:51:27 435.950
AIST 2 31 Jan 07:52:05 07:55:07 18° 7° (N) 07:58:09 435.215
AO-7 31 Jan 07:55:34 08:01:55 24° 322° (NW) 08:08:04 29.400- 29.500
BEESAT 3 31 Jan 07:57:12 08:00:26 21° 18° (NNE) 08:03:41 437.485
STRAND 1 31 Jan 08:01:27 08:04:45 17° 274° (W) 08:07:53 437.568
DANDE 31 Jan 08:20:17 08:24:10 13° 327° (NNW) 08:27:37 436.750
SEEDS 31 Jan 08:24:13 08:26:29 14° 86° (E) 08:28:53 437.485
UNISAT 6 31 Jan 08:25:20 08:28:01 16° 54° (NE) 08:30:48 437.425
GOMX 1 31 Jan 08:33:19 08:37:48 26° 88° (E) 08:42:13 467.674
DOVE 4 31 Jan 08:35:29 08:39:14 20° 85° (E) 08:42:59 437.250
COMPASS 1 31 Jan 08:46:59 08:50:02 20° 89° (E) 08:53:09 437.405
BRITE-PL 31 Jan 08:48:50 08:54:18 45° 96° (E) 08:59:36 437.365/2234.400
NANOSAT C BR1 31 Jan 08:51:49 08:54:12 15° 55° (NE) 08:56:42 145.865
Cubesat XI-IV 31 Jan 08:53:24 08:57:30 22° 306° (NW) 09:01:30 437.490
ANTELSAT 31 Jan 08:59:58 09:03:53 27° 62° (ENE) 09:07:49 437.575/2403.000
PCSat 31 Jan 09:03:31 09:07:21 19° 1° (N) 09:11:11 145.827
CUBEBUG 2 31 Jan 09:04:37 09:06:12 12° 81° (E) 09:07:58 437.445
TIGRISAT 31 Jan 09:06:12 09:10:14 30° 63° (ENE) 09:14:18 435.000
QB50P2 31 Jan 09:06:39 09:09:42 20° 58° (ENE) 09:12:52 145.880/145.840
CANX-2 31 Jan 09:07:28 09:11:32 43° 98° (E) 09:15:35 2200.000
AAUSAT CUBESAT 2 31 Jan 09:11:11 09:14:50 29° 94° (E) 09:18:29 437.432
YUBILEINY 31 Jan 09:11:40 09:17:50 21° 286° (WNW) 09:23:42 435.215
CUTE-I 31 Jan 09:13:09 09:16:37 17° 309° (NW) 09:19:56 437.470
QB50P1 31 Jan 09:14:51 09:18:10 22° 60° (ENE) 09:21:33 145.935-145.965
BUGSAT 1 31 Jan 09:15:17 09:18:05 18° 58° (ENE) 09:21:00 437.445
HO-68 31 Jan 09:23:04 09:30:08 58° 101° (ESE) 09:37:12 435.675
BEESAT 2 31 Jan 09:23:24 09:27:30 46° 37° (NE) 09:31:32 435.950
GONETS M04 31 Jan 09:23:51 09:27:49 14° 33° (NNE) 09:32:06
POLYITAN 1 31 Jan 09:30:39 09:34:24 30° 63° (ENE) 09:38:13 437.675
AIST 2 31 Jan 09:30:56 09:34:54 33° 30° (NNE) 09:38:49 435.215
CUTE 1.7 + AOD 2 31 Jan 09:31:13 09:35:28 67° 102° (ESE) 09:39:40 437.475
BEESAT 3 31 Jan 09:35:12 09:39:21 59° 41° (NE) 09:43:28 437.485
UWE-3 31 Jan 09:38:37 09:41:55 20° 88° (E) 09:45:15 435.000/436.395/437.385
Oscar 11 31 Jan 09:40:50 09:44:38 30° 94° (E) 09:48:28 145.826/435.025
CINEMA 3 31 Jan 09:42:32 09:47:09 40° 96° (E) 09:51:34 145.822/145.860
AO-7 31 Jan 09:48:33 09:51:48 13° 349° (N) 09:54:58 29.400- 29.500
POPSAT HIP 1 31 Jan 09:49:04 09:53:06 41° 67° (ENE) 09:57:13 437.405
DUCHIFAT 1 31 Jan 09:50:20 09:54:23 42° 67° (ENE) 09:58:28 145.980
RS-15 31 Jan 09:55:16 10:05:48 47° 3° (N) 10:16:45 29.354- 29.394
SEEDS 31 Jan 09:58:42 10:02:56 79° 287° (WNW) 10:07:07 437.485
UNISAT 6 31 Jan 09:59:27 10:04:11 79° 72° (ENE) 10:08:51 437.425
VELOX 1 31 Jan 10:08:05 10:10:43 16° 86° (E) 10:13:30 145.980
GOMX 1 31 Jan 10:10:57 10:16:24 63° 290° (WNW) 10:21:35 467.674
DOVE 4 31 Jan 10:12:24 10:17:42 77° 286° (WNW) 10:22:43 437.250
UKube-1 31 Jan 10:17:21 10:21:26 38° 97° (E) 10:25:32 .
HUMSAT D 31 Jan 10:22:00 10:25:28 24° 91° (E) 10:28:54 437.325/437.525
COMPASS 1 31 Jan 10:22:02 10:26:09 55° 289° (WNW) 10:30:13 437.405
NANOSAT C BR1 31 Jan 10:25:11 10:29:29 86° 74° (ENE) 10:33:50 145.865
BRITE-PL 31 Jan 10:27:27 10:32:46 40° 296° (WNW) 10:37:53 437.365/2234.400
DELFI C3 31 Jan 10:28:29 10:32:33 70° 102° (ESE) 10:36:35 145.870
SO-50 31 Jan 10:29:59 10:34:19 41° 123° (ESE) 10:38:49 436.795
ANTELSAT 31 Jan 10:35:51 10:40:28 52° 260° (W) 10:45:03 437.575/2403.000
PHONESAT 2.4 31 Jan 10:35:53 10:36:55 11° 175° (S) 10:37:58 2401.200-2431.200
ZACube-1 31 Jan 10:36:40 10:41:04 54° 100° (E) 10:45:20 437.345
CUBEBUG 2 31 Jan 10:39:12 10:43:52 77° 102° (ESE) 10:48:20 437.445
DX 1 31 Jan 10:40:49 10:45:13 64° 102° (ESE) 10:49:35 434.975-435.025
QB50P2 31 Jan 10:40:56 10:45:14 68° 257° (WSW) 10:49:34 145.880/145.840
TIGRISAT 31 Jan 10:42:18 10:46:51 47° 262° (W) 10:51:23 435.000
CANX-2 31 Jan 10:43:44 10:47:20 27° 297° (WNW) 10:50:53 2200.000
AAUSAT CUBESAT 2 31 Jan 10:46:44 10:50:36 37° 293° (WNW) 10:54:25 437.432
FUNcube-1 31 Jan 10:47:48 10:52:17 67° 102° (ESE) 10:56:36 145.935
PCSat 31 Jan 10:47:50 10:52:30 28° 26° (NNE) 10:57:11 145.827
BUGSAT 1 31 Jan 10:49:01 10:53:09 71° 258° (WSW) 10:57:23 437.445
QB50P1 31 Jan 10:49:31 10:53:46 57° 259° (W) 10:58:02 145.935-145.965
